OK1FPA-13 Weather Reports


time (UTC)temp
C
wind
direction
speed
KPH
gust
KPH
rain 1hr
cm
rain 24hr
cm
rain mn
cm
humidity
%
barometer
mb
20260506173442 15 0.0 0.0 0.00 0.00 0.00 10 1003.9
20260506172443 16 0.0 0.0 0.00 0.00 0.00 10 1004.2
20260506171443 16 0.0 0.0 0.00 0.00 0.00 97 1002.8
20260506170442 16 0.0 0.0 0.00 0.00 0.00 98 1002.8
20260506165442 16 0.0 0.0 0.00 0.00 0.00 94 1002.8
20260506164443 16 0.0 0.0 0.00 0.00 0.00 96 1002.9
20260506163443 16 0.0 0.0 0.00 0.00 0.00 10 1003.1
20260506162442 16 0.0 0.0 0.00 0.00 0.00 99 1003.3
20260506161442 17 0.0 0.0 0.00 0.00 0.00 92 1003.3
20260506160443 17 0.0 0.0 0.00 0.00 0.00 83 1003.7
20260506155442 17 0.0 0.0 0.00 0.00 0.00 88 1003.6
20260506154442 18 0.0 0.0 0.00 0.00 0.00 87 1003.9
20260506153442 18 0.0 0.0 0.00 0.00 0.00 78 1003.9
20260506152442 18 0.0 0.0 0.00 0.00 0.00 78 1003.9
20260506151442 18 0.0 0.0 0.00 0.00 0.00 78 1003.7
20260506150442 17 0.0 0.0 0.00 0.00 0.00 75 1003.6
20260506145443 18 0.0 0.0 0.00 0.00 0.00 82 1003.8
20260506144443 18 0.0 0.0 0.00 0.00 0.00 82 1004.1
20260506143442 19 0.0 0.0 0.00 0.00 0.00 73 1004.2
20260506142442 19 0.0 0.0 0.00 0.00 0.00 68 1004.0
20260506141442 20 0.0 0.0 0.00 0.00 0.00 64 1004.0
20260506140443 20 0.0 0.0 0.00 0.00 0.00 70 1004.1
20260506135442 20 0.0 0.0 0.00 0.00 0.00 59 1004.1
20260506134442 20 0.0 0.0 0.00 0.00 0.00 61 1004.6
20260506133442 22 0.0 0.0 0.00 0.00 0.00 52 1004.8
20260506132445 22 0.0 0.0 0.00 0.00 0.00 40 1004.2
20260506131441 22 0.0 0.0 0.00 0.00 0.00 39 1004.2
20260506130441 22 0.0 0.0 0.00 0.00 0.00 39 1004.5
20260506125441 22 0.0 0.0 0.00 0.00 0.00 39 1004.6
20260506124441 23 0.0 0.0 0.00 0.00 0.00 37 1004.7
20260506123441 23 0.0 0.0 0.00 0.00 0.00 36 1004.8
20260506122441 23 0.0 0.0 0.00 0.00 0.00 36 1004.9
20260506121441 24 0.0 0.0 0.00 0.00 0.00 37 1005.0
20260506120441 26 0.0 0.0 0.00 0.00 0.00 32 1005.0
20260506115441 26 0.0 0.0 0.00 0.00 0.00 32 1005.0
20260506114441 25 0.0 0.0 0.00 0.00 0.00 34 1005.2
20260506113441 24 0.0 0.0 0.00 0.00 0.00 35 1005.3
20260506112441 25 0.0 0.0 0.00 0.00 0.00 35 1005.4
20260506111441 25 0.0 0.0 0.00 0.00 0.00 36 1005.5
20260506110441 25 0.0 0.0 0.00 0.00 0.00 35 1005.6
20260506105441 24 0.0 0.0 0.00 0.00 0.00 36 1005.7
20260506104441 23 0.0 0.0 0.00 0.00 0.00 35 1005.7
20260506103441 23 0.0 0.0 0.00 0.00 0.00 38 1005.9
20260506102441 23 0.0 0.0 0.00 0.00 0.00 36 1006.0
20260506101441 23 0.0 0.0 0.00 0.00 0.00 38 1006.1
20260506100441 23 0.0 0.0 0.00 0.00 0.00 38 1006.2
20260506095441 22 0.0 0.0 0.00 0.00 0.00 41 1006.2
20260506094441 22 0.0 0.0 0.00 0.00 0.00 40 1006.3
20260506093441 22 0.0 0.0 0.00 0.00 0.00 40 1006.1
20260506092441 22 0.0 0.0 0.00 0.00 0.00 43 1006.0
20260506091441 22 0.0 0.0 0.00 0.00 0.00 42 1006.0
20260506090441 21 0.0 0.0 0.00 0.00 0.00 43 1006.1
20260506085441 21 0.0 0.0 0.00 0.00 0.00 44 1006.1
20260506084441 21 0.0 0.0 0.00 0.00 0.00 44 1006.0
20260506083441 21 0.0 0.0 0.00 0.00 0.00 46 1005.9
20260506082441 20 0.0 0.0 0.00 0.00 0.00 48 1006.0
20260506081441 20 0.0 0.0 0.00 0.00 0.00 49 1006.0
20260506080441 20 0.0 0.0 0.00 0.00 0.00 52 1006.1
20260506073441 19 0.0 0.0 0.00 0.00 0.00 56 1006.2
20260506072441 18 0.0 0.0 0.00 0.00 0.00 60 1006.2
20260506071442 18 0.0 0.0 0.00 0.00 0.00 61 1006.2
20260506070441 18 0.0 0.0 0.00 0.00 0.00 62 1006.3
20260506062441 17 0.0 0.0 0.00 0.00 0.00 68 1006.0
20260506061441 16 0.0 0.0 0.00 0.00 0.00 71 1006.2
20260506060441 16 0.0 0.0 0.00 0.00 0.00 69 1006.1
20260506050441 13 0.0 0.0 0.00 0.00 0.00 10 1005.8
20260506044441 13 0.0 0.0 0.00 0.00 0.00 10 1005.9
20260506043441 13 0.0 0.0 0.00 0.00 0.00 10 1005.7
20260506042441 13 0.0 0.0 0.00 0.00 0.00 10 1005.7
20260506041441 12 0.0 0.0 0.00 0.00 0.00 10 1005.4
20260506040441 12 0.0 0.0 0.00 0.00 0.00 10 1005.4
20260506035441 12 0.0 0.0 0.00 0.00 0.00 10 1005.2
20260506034441 12 0.0 0.0 0.00 0.00 0.00 10 1005.1
20260506032441 13 0.0 0.0 0.00 0.00 0.00 10 1005.2
20260506031441 13 0.0 0.0 0.00 0.00 0.00 10 1005.3
20260506030441 13 0.0 0.0 0.00 0.00 0.00 10 1005.2
20260506025441 13 0.0 0.0 0.00 0.00 0.00 10 1005.2
20260506024441 13 0.0 0.0 0.00 0.00 0.00 10 1005.2
20260506023441 13 0.0 0.0 0.00 0.00 0.00 99 1005.1
20260506022441 13 0.0 0.0 0.00 0.00 0.00 97 1005.0
20260506021441 14 0.0 0.0 0.00 0.00 0.00 97 1004.9
20260506020441 14 0.0 0.0 0.00 0.00 0.00 95 1004.5
20260506015441 14 0.0 0.0 0.00 0.00 0.00 95 1004.4
20260506014441 14 0.0 0.0 0.00 0.00 0.00 96 1004.6
20260506013442 14 0.0 0.0 0.00 0.00 0.00 97 1005.0
20260506012443 14 0.0 0.0 0.00 0.00 0.00 93 1005.0
20260506011457 14 0.0 0.0 0.00 0.00 0.00 90 1004.9
20260506010457 15 0.0 0.0 0.00 0.00 0.00 90 1004.8
20260506005457 15 0.0 0.0 0.00 0.00 0.00 91 1004.7
20260506004457 14 0.0 0.0 0.00 0.00 0.00 92 1004.4
20260506003457 14 0.0 0.0 0.00 0.00 0.00 90 1004.5
20260506002457 15 0.0 0.0 0.00 0.00 0.00 89 1004.6
20260506001457 15 0.0 0.0 0.00 0.00 0.00 92 1004.5
20260506000457 15 0.0 0.0 0.00 0.00 0.00 94 1004.7
20260505235458 15 0.0 0.0 0.00 0.00 0.00 89 1004.7
20260505234457 15 0.0 0.0 0.00 0.00 0.00 76 1004.7
20260505233457 16 0.0 0.0 0.00 0.00 0.00 63 1004.6
20260505232457 16 0.0 0.0 0.00 0.00 0.00 58 1004.4
20260505231457 16 0.0 0.0 0.00 0.00 0.00 56 1004.4
20260505230457 16 0.0 0.0 0.00 0.00 0.00 56 1004.5
20260505225457 16 0.0 0.0 0.00 0.00 0.00 56 1004.4
20260505224457 16 0.0 0.0 0.00 0.00 0.00 55 1004.5
20260505223457 16 0.0 0.0 0.00 0.00 0.00 53 1004.2
20260505222457 16 0.0 0.0 0.00 0.00 0.00 53 1004.5
20260505221457 16 0.0 0.0 0.00 0.00 0.00 54 1003.4
20260505220457 16 0.0 0.0 0.00 0.00 0.00 57 1003.3
20260505215457 16 0.0 0.0 0.00 0.00 0.00 57 1003.1
20260505214457 16 0.0 0.0 0.00 0.00 0.00 57 1003.2
20260505213457 16 0.0 0.0 0.00 0.00 0.00 66 1003.2
20260505212457 16 0.0 0.0 0.00 0.00 0.00 66 1003.2
20260505211457 16 0.0 0.0 0.00 0.00 0.00 67 1003.1
20260505210457 16 0.0 0.0 0.00 0.00 0.00 64 1003.1
20260505205458 17 0.0 0.0 0.00 0.00 0.00 63 1003.1
20260505204458 17 0.0 0.0 0.00 0.00 0.00 64 1003.2
20260505203457 17 0.0 0.0 0.00 0.00 0.00 64 1003.3
20260505202457 16 0.0 0.0 0.00 0.00 0.00 66 1003.3
20260505201457 17 0.0 0.0 0.00 0.00 0.00 61 1003.3
20260505200458 17 0.0 0.0 0.00 0.00 0.00 59 1003.3
20260505195457 17 0.0 0.0 0.00 0.00 0.00 59 1003.3
20260505194457 18 0.0 0.0 0.00 0.00 0.00 57 1003.1
20260505193457 18 0.0 0.0 0.00 0.00 0.00 55 1003.3
20260505192457 18 0.0 0.0 0.00 0.00 0.00 56 1003.3
20260505191457 18 0.0 0.0 0.00 0.00 0.00 56 1003.2
20260505190457 18 0.0 0.0 0.00 0.00 0.00 56 1003.0
20260505185457 18 0.0 0.0 0.00 0.00 0.00 56 1003.0
20260505184458 18 0.0 0.0 0.00 0.00 0.00 56 1003.0
20260505183458 18 0.0 0.0 0.00 0.00 0.00 54 1003.0
20260505182458 19 0.0 0.0 0.00 0.00 0.00 54 1003.0
20260505181457 20 0.0 0.0 0.00 0.00 0.00 52 1003.0
20260505180457 21 0.0 0.0 0.00 0.00 0.00 48 1003.1
20260505175457 21 0.0 0.0 0.00 0.00 0.00 45 1003.2
20260505174457 22 0.0 0.0 0.00 0.00 0.00 40 1003.1